sat.trackr.live / text

‹ back to catalog

STARLINK-32175

NORAD 60339 · 2024-136L

PAYLOAD ACTIVE UNKNOWN

§ Identity

Operator
Country
US
Launch date
2024-08-02
Launch site
AFETR
Launch vehicle
Mass (kg)
RCS (m²)

Purposes: comms

External: N2YO · Heavens-Above · Gunter

§ Orbital elements

Epoch: 2026-09-21T22:56:51.382464Z

Period
93.85 min
Inclination
53.1589°
Eccentricity
0.0001637
Mean motion
15.34400453 rev/d
Perigee alt
461.6 km
Apogee alt
463.8 km
Semi-major
6,840.8 km
B*
4.3642e-5
RAAN
242.6251°
Arg perigee
100.9981°
Mean anomaly
259.1206°
Rev number
11,973

§ Raw data

STARLINK-321751 60339U 24136L   26264.95615026  .00001098  00000+0  43642-4 0  99912 60339  53.1589 242.6251 0001637 100.9981 259.1206 15.34400453119736

JSON: /api/v1/satellites/60339 · /tle

For live sub-satellite position, see the globe view (requires WebGL).

§ Visibility from observer

Set your observer location to see the next 7 days of passes ≥ 10°. The values pass through the URL so the page stays shareable.

No JS? Fill the form by hand. The geolocation button needs JavaScript.